STARLINK-4344, 53072

Orbit data source: Space-Track

STARLINK-4344, 53072 is a payload satellite owned by SpaceX/Seattle (US) in SSO that was launched on Mon, 11 Jul 2022 UTC via an FALCON 9 launch vehicle from the Air Force Western Test Range (AFWTR). Payload-class satellites include a variety of spacecraft equipped with specific instruments for various scientific and technological missions. These include communications satellites like Starlink; space stations such as the ISS; scientific satellites like the Hubble; Earth observation satellites from companies like Planet Labs, Umbra, and HawkEye 360; GPS; miniature CubeSats for education and research; and military/defense satellites.

Loading next visibility...
Identifier
53072, 2022-077AF
Orbit
SSO
Country
Flag of USUS
Related business
Manufacturer
SpaceX/Seattle
Mission
Operational Commercial Communications
Bus & Motor
STARLINK, Unknown motor
Mass
297 kg wet, ~275 kg dry
Launch date (UTC)
2022-07-11 (3 years ago)
Launch vehicle
FALCON 9
Launch site
Air Force Western Test Range (AFWTR)
Object type
Payload
Rocket body
Debris
Shape & HBR
Box + 1 Pan, 10.1 m
Radar Cross Section
13.562 m², Large (>1 m²)

Expand to show TLE details & history
Last TLE update: 20 hours ago

TLE from 20 hours ago
0 STARLINK-4344
1 53072U 22077AF  25348.77861599  .00000472  00000-0  36912-4 0  9997
2 53072  97.6016 167.4901 0001664  84.2165 275.9252 15.05644205188202
Epoch: 2025-12-14T18:41Z
TLE epoch observation values (Epoch: 2025-12-14T18:41:12.421Z)
Latitude
0.00003°
Longitude
163.5017°
Altitude
552.475 km
Speed
7.586 km/s
True Right ascension
11h 09m 57s
True Declination
0° 00' 00"
Sunlit
Object was in daylight at epoch
Visualization orbit readout
Latitude
Unknown
Longitude
Unknown
Altitude
Unknown
Speed
Unknown
Apparent Right ascension
Unknown
Apparent Declination
Unknown
Sunlit
N/A
Visualization observer readout
Local Sidereal Time
13:19:53
Azimuth
Unknown
Elevation
Unknown
Doppler factor
Unknown
Orbital elements
Apogee altitude
547.675 km
Perigee altitude
545.37 km
Semi-major axis
6,924.659 km
Eccentricity
0.00017
Inclination
97.6016°
RAAN
167.4901°
Arg. of periapsis
84.2165°
True anomaly
275.90623°
Mean anomaly
275.9252°
Eccentric anomaly
275.91572°
Mean motion
3.76657 °/min
Orbital period
95.58 mins
BSTAR
0.000036912
Loading maneuver chart data...
Computing Atmospheric mass density...
Loading historical data...
Loading historical data...
Loading historical data...
Loading historical data...
Loading historical data...
Loading historical data...
Loading historical data...

Documentation

Showing up to 5 results
|